Location: Newark
(6.1167°N, 1.2167°E)
Time: 02:08:59
(UTC+00:00)

Envisat - Visible Passes

Search period start: 23 March 2019 00:00
Search period end: 02 April 2019 00:00
Orbit: 764 x 766 km, 98.2° (Epoch: 22 March)

Date Brightness Start Highest point End Pass type
(mag) Time Alt. Az. Time Alt. Az. Time Alt. Az.
23 Mar 4.7 19:31:47 10° SSW 19:36:16 32° WSW 19:40:46 10° NW visible
24 Mar 2.9 18:54:31 10° SSE 18:59:36 88° E 19:04:41 10° N visible
25 Mar 5.8 19:58:50 10° SW 20:01:45 15° W 20:04:41 10° WNW visible
26 Mar 4.2 19:20:17 10° S 19:25:05 44° WSW 19:29:52 10° NNW visible
27 Mar 3.0 18:43:24 10° SSE 18:48:25 65° ENE 18:53:26 10° N visible
28 Mar 5.4 19:46:48 10° SSW 19:50:34 21° W 19:54:19 10° NW visible
29 Mar 3.5 19:08:53 10° S 19:13:53 60° WSW 19:18:52 10° NNW visible
30 Mar 3.2 18:32:23 10° SSE 18:37:14 47° ENE 18:42:04 10° N visible
31 Mar 4.9 19:35:02 10° SSW 19:39:22 28° W 19:43:41 10° NW visible
01 Apr 3.1 18:57:37 10° S 19:02:42 82° WSW 19:07:45 10° NNW visible
